| time (UTC) | temp C | wind direction | speed KPH | gust KPH | rain 1hr cm | rain 24hr cm | rain mn cm | humidity % | barometer mb |
| 20260831115612 | 23 | 215 | 9.7 | 14.5 | 0.00 | 0.00 | 0.00 | 78 | 1011.2 |
| 20260831115107 | 23 | 166 | 8.0 | 12.9 | 0.00 | 0.00 | 0.00 | 79 | 1011.2 |
| 20260831114606 | 23 | 212 | 9.7 | 14.5 | 0.00 | 0.00 | 0.00 | 78 | 1011.2 |
| 20260831114101 | 24 | 193 | 8.0 | 11.3 | 0.00 | 0.00 | 0.00 | 78 | 1011.3 |
| 20260831113600 | 23 | 219 | 8.0 | 11.3 | 0.00 | 0.00 | 0.00 | 79 | 1011.3 |
| 20260831113056 | 23 | 222 | 6.4 | 11.3 | 0.00 | 0.00 | 0.00 | 79 | 1011.4 |
| 20260831112554 | 23 | 229 | 6.4 | 8.0 | 0.00 | 0.00 | 0.00 | 79 | 1011.3 |
| 20260831112050 | 23 | 187 | 6.4 | 8.0 | 0.00 | 0.00 | 0.00 | 78 | 1011.1 |
| 20260831111546 | 24 | 235 | 4.8 | 8.0 | 0.00 | 0.00 | 0.00 | 78 | 1011.2 |
| 20260831111041 | 23 | 260 | 1.6 | 9.7 | 0.00 | 0.00 | 0.00 | 78 | 1011.2 |
| 20260831110536 | 23 | 252 | 4.8 | 4.8 | 0.00 | 0.00 | 0.00 | 79 | 1011.1 |
| 20260831110026 | 23 | 250 | 3.2 | 8.0 | 0.00 | 0.00 | 0.00 | 79 | 1011.0 |
| 20260831105525 | 23 | 229 | 4.8 | 4.8 | 0.00 | 0.00 | 0.00 | 80 | 1010.9 |
| 20260831105020 | 23 | 236 | 3.2 | 4.8 | 0.00 | 0.00 | 0.00 | 79 | 1010.9 |
| 20260831104516 | 24 | 232 | 3.2 | 8.0 | 0.00 | 0.00 | 0.00 | 79 | 1010.7 |
| 20260831104013 | 24 | 210 | 4.8 | 8.0 | 0.00 | 0.00 | 0.00 | 78 | 1010.6 |
| 20260831103513 | 24 | 224 | 6.4 | 9.7 | 0.00 | 0.00 | 0.00 | 78 | 1010.7 |
| 20260831103009 | 24 | 196 | 4.8 | 9.7 | 0.00 | 0.00 | 0.00 | 78 | 1010.7 |
| 20260831102503 | 24 | 213 | 4.8 | 8.0 | 0.00 | 0.00 | 0.00 | 79 | 1010.7 |
| 20260831101958 | 24 | 206 | 4.8 | 8.0 | 0.00 | 0.00 | 0.00 | 78 | 1010.6 |
| 20260831101453 | 24 | 223 | 6.4 | 9.7 | 0.00 | 0.00 | 0.00 | 78 | 1010.6 |
| 20260831100949 | 24 | 217 | 6.4 | 8.0 | 0.00 | 0.00 | 0.00 | 78 | 1010.7 |
| 20260831100445 | 24 | 180 | 4.8 | 8.0 | 0.00 | 0.00 | 0.00 | 78 | 1010.6 |
| 20260831095940 | 25 | 196 | 4.8 | 9.7 | 0.00 | 0.00 | 0.00 | 77 | 1010.6 |
| 20260831095439 | 24 | 214 | 6.4 | 9.7 | 0.00 | 0.00 | 0.00 | 77 | 1010.7 |
| 20260831094933 | 24 | 201 | 6.4 | 9.7 | 0.00 | 0.00 | 0.00 | 78 | 1010.7 |
| 20260831094430 | 24 | 221 | 4.8 | 9.7 | 0.00 | 0.00 | 0.00 | 78 | 1010.5 |
| 20260831093925 | 25 | 256 | 3.2 | 8.0 | 0.00 | 0.00 | 0.00 | 77 | 1010.7 |
| 20260831093420 | 25 | 222 | 4.8 | 8.0 | 0.00 | 0.00 | 0.00 | 77 | 1010.6 |
| 20260831092917 | 25 | 246 | 3.2 | 4.8 | 0.00 | 0.00 | 0.00 | 76 | 1010.8 |
| 20260831092412 | 25 | 229 | 3.2 | 4.8 | 0.00 | 0.00 | 0.00 | 76 | 1011.0 |
| 20260831091907 | 25 | 259 | 3.2 | 8.0 | 0.00 | 0.00 | 0.00 | 75 | 1010.8 |
| 20260831091402 | 25 | 229 | 3.2 | 4.8 | 0.00 | 0.00 | 0.00 | 75 | 1010.9 |
| 20260831090852 | 25 | 207 | 4.8 | 8.0 | 0.00 | 0.00 | 0.00 | 75 | 1011.0 |
| 20260831090348 | 25 | 217 | 6.4 | 9.7 | 0.00 | 0.00 | 0.00 | 75 | 1010.7 |
| 20260831085844 | 25 | 195 | 4.8 | 9.7 | 0.00 | 0.00 | 0.00 | 74 | 1010.8 |
| 20260831085338 | 25 | 218 | 8.0 | 12.9 | 0.00 | 0.00 | 0.00 | 74 | 1010.6 |
| 20260831084833 | 26 | 239 | 6.4 | 11.3 | 0.00 | 0.00 | 0.00 | 74 | 1010.9 |
| 20260831084330 | 26 | 224 | 9.7 | 11.3 | 0.00 | 0.00 | 0.00 | 74 | 1010.7 |
| 20260831083826 | 26 | 213 | 8.0 | 16.1 | 0.00 | 0.00 | 0.00 | 73 | 1010.8 |
| 20260831083321 | 26 | 226 | 9.7 | 12.9 | 0.00 | 0.00 | 0.00 | 74 | 1010.7 |
| 20260831082819 | 26 | 221 | 11.3 | 14.5 | 0.00 | 0.00 | 0.00 | 73 | 1010.5 |
| 20260831082314 | 26 | 221 | 8.0 | 16.1 | 0.00 | 0.00 | 0.00 | 74 | 1010.8 |
| 20260831081810 | 26 | 206 | 6.4 | 11.3 | 0.00 | 0.00 | 0.00 | 74 | 1010.7 |
| 20260831081305 | 26 | 188 | 6.4 | 12.9 | 0.00 | 0.00 | 0.00 | 74 | 1010.8 |
| 20260831080800 | 26 | 168 | 11.3 | 12.9 | 0.00 | 0.00 | 0.00 | 74 | 1010.7 |
| 20260831080255 | 26 | 168 | 9.7 | 12.9 | 0.00 | 0.00 | 0.00 | 73 | 1010.7 |
| 20260831075752 | 26 | 216 | 8.0 | 11.3 | 0.00 | 0.00 | 0.00 | 74 | 1010.8 |
| 20260831075247 | 26 | 193 | 6.4 | 12.9 | 0.00 | 0.00 | 0.00 | 74 | 1010.6 |
| 20260831074746 | 26 | 217 | 8.0 | 12.9 | 0.00 | 0.00 | 0.00 | 74 | 1010.7 |
| 20260831074240 | 26 | 196 | 6.4 | 11.3 | 0.00 | 0.00 | 0.00 | 74 | 1010.7 |
| 20260831073736 | 26 | 212 | 11.3 | 12.9 | 0.00 | 0.00 | 0.00 | 73 | 1010.6 |
| 20260831073235 | 26 | 194 | 6.4 | 11.3 | 0.00 | 0.00 | 0.00 | 74 | 1010.7 |
| 20260831072730 | 26 | 139 | 9.7 | 12.9 | 0.00 | 0.00 | 0.00 | 74 | 1010.6 |
| 20260831072226 | 26 | 189 | 4.8 | 11.3 | 0.00 | 0.00 | 0.00 | 74 | 1010.6 |
| 20260831071721 | 26 | 226 | 4.8 | 8.0 | 0.00 | 0.00 | 0.00 | 75 | 1010.8 |
| 20260831071221 | 26 | 204 | 4.8 | 11.3 | 0.00 | 0.00 | 0.00 | 75 | 1010.6 |
| 20260831070715 | 26 | 155 | 4.8 | 9.7 | 0.00 | 0.00 | 0.00 | 75 | 1010.5 |
| 20260831070209 | 26 | 164 | 6.4 | 8.0 | 0.00 | 0.00 | 0.00 | 75 | 1010.9 |
| 20260831065709 | 26 | 233 | 4.8 | 9.7 | 0.00 | 0.00 | 0.00 | 75 | 1010.7 |
| 20260831065207 | 26 | 174 | 6.4 | 9.7 | 0.00 | 0.00 | 0.00 | 75 | 1010.7 |
| 20260831064702 | 26 | 162 | 8.0 | 12.9 | 0.00 | 0.00 | 0.00 | 75 | 1010.7 |
| 20260831064157 | 26 | 192 | 6.4 | 9.7 | 0.00 | 0.00 | 0.00 | 75 | 1010.8 |
| 20260831063653 | 26 | 223 | 4.8 | 8.0 | 0.00 | 0.00 | 0.00 | 77 | 1010.8 |
| 20260831063143 | 26 | 157 | 8.0 | 11.3 | 0.00 | 0.00 | 0.00 | 76 | 1010.9 |
| 20260831062642 | 26 | 179 | 8.0 | 9.7 | 0.00 | 0.00 | 0.00 | 78 | 1011.0 |
| 20260831062136 | 26 | 190 | 6.4 | 9.7 | 0.00 | 0.00 | 0.00 | 78 | 1010.9 |
| 20260831061634 | 26 | 171 | 6.4 | 9.7 | 0.00 | 0.00 | 0.00 | 78 | 1011.2 |
| 20260831061130 | 25 | 177 | 6.4 | 8.0 | 0.00 | 0.00 | 0.00 | 79 | 1010.9 |
| 20260831060626 | 25 | 185 | 4.8 | 8.0 | 0.00 | 0.00 | 0.00 | 79 | 1011.1 |
| 20260831060120 | 26 | 192 | 6.4 | 8.0 | 0.00 | 0.00 | 0.00 | 79 | 1011.1 |
| 20260831055614 | 26 | 181 | 4.8 | 8.0 | 0.00 | 0.00 | 0.00 | 80 | 1010.9 |
| 20260831055110 | 26 | 180 | 4.8 | 9.7 | 0.00 | 0.00 | 0.00 | 80 | 1011.0 |
| 20260831054609 | 26 | 168 | 6.4 | 8.0 | 0.00 | 0.00 | 0.00 | 80 | 1011.0 |
| 20260831054109 | 26 | 201 | 4.8 | 8.0 | 0.00 | 0.00 | 0.00 | 80 | 1011.1 |
| 20260831053608 | 26 | 162 | 6.4 | 8.0 | 0.00 | 0.00 | 0.00 | 80 | 1010.9 |
| 20260831053102 | 26 | 188 | 6.4 | 12.9 | 0.00 | 0.00 | 0.00 | 79 | 1011.0 |
| 20260831052601 | 26 | 179 | 8.0 | 11.3 | 0.00 | 0.00 | 0.00 | 79 | 1010.9 |
| 20260831052056 | 26 | 166 | 6.4 | 11.3 | 0.00 | 0.00 | 0.00 | 79 | 1010.9 |
| 20260831051554 | 26 | 161 | 6.4 | 16.1 | 0.00 | 0.00 | 0.00 | 79 | 1010.7 |
| 20260831051053 | 26 | 178 | 8.0 | 12.9 | 0.00 | 0.00 | 0.00 | 79 | 1010.6 |
| 20260831050553 | 26 | 175 | 6.4 | 11.3 | 0.00 | 0.00 | 0.00 | 79 | 1010.7 |
| 20260831050051 | 26 | 189 | 6.4 | 12.9 | 0.00 | 0.00 | 0.00 | 79 | 1010.7 |
| 20260831045551 | 26 | 171 | 8.0 | 12.9 | 0.00 | 0.00 | 0.00 | 79 | 1010.7 |
| 20260831045046 | 26 | 240 | 6.4 | 9.7 | 0.00 | 0.00 | 0.00 | 80 | 1010.5 |
| 20260831044541 | 26 | 159 | 9.7 | 16.1 | 0.00 | 0.00 | 0.00 | 79 | 1010.7 |
| 20260831044036 | 26 | 178 | 4.8 | 9.7 | 0.00 | 0.00 | 0.00 | 80 | 1010.8 |
| 20260831043537 | 26 | 153 | 6.4 | 9.7 | 0.00 | 0.00 | 0.00 | 80 | 1010.7 |
| 20260831043032 | 26 | 184 | 6.4 | 9.7 | 0.00 | 0.00 | 0.00 | 79 | 1010.6 |
| 20260831042527 | 26 | 174 | 6.4 | 11.3 | 0.00 | 0.00 | 0.00 | 80 | 1010.7 |
| 20260831042026 | 26 | 159 | 4.8 | 9.7 | 0.00 | 0.00 | 0.00 | 80 | 1010.8 |
| 20260831041521 | 26 | 223 | 4.8 | 12.9 | 0.00 | 0.00 | 0.00 | 80 | 1010.8 |
| 20260831041015 | 26 | 197 | 6.4 | 9.7 | 0.00 | 0.00 | 0.00 | 80 | 1010.8 |
| 20260831040510 | 26 | 156 | 6.4 | 9.7 | 0.00 | 0.00 | 0.00 | 81 | 1010.8 |
| 20260831040009 | 26 | 204 | 6.4 | 9.7 | 0.00 | 0.00 | 0.00 | 81 | 1010.9 |
| 20260831035502 | 26 | 173 | 4.8 | 11.3 | 0.00 | 0.00 | 0.00 | 81 | 1010.8 |
| 20260831034957 | 26 | 184 | 6.4 | 12.9 | 0.00 | 0.00 | 0.00 | 81 | 1010.7 |
| 20260831034451 | 26 | 174 | 6.4 | 11.3 | 0.00 | 0.00 | 0.00 | 81 | 1010.9 |
| 20260831033947 | 26 | 186 | 9.7 | 14.5 | 0.00 | 0.00 | 0.00 | 82 | 1011.0 |
| 20260831033442 | 26 | 191 | 4.8 | 8.0 | 0.00 | 0.00 | 0.00 | 83 | 1010.8 |
| 20260831032937 | 26 | 176 | 4.8 | 8.0 | 0.00 | 0.00 | 0.00 | 83 | 1010.8 |
| 20260831032432 | 26 | 184 | 6.4 | 11.3 | 0.00 | 0.00 | 0.00 | 82 | 1011.0 |
| 20260831031927 | 26 | 172 | 8.0 | 9.7 | 0.00 | 0.00 | 0.00 | 82 | 1011.0 |
| 20260831031427 | 26 | 146 | 4.8 | 8.0 | 0.00 | 0.00 | 0.00 | 83 | 1011.0 |
| 20260831030921 | 26 | 225 | 4.8 | 8.0 | 0.00 | 0.00 | 0.00 | 84 | 1010.7 |
| 20260831030420 | 26 | 205 | 4.8 | 9.7 | 0.00 | 0.00 | 0.00 | 84 | 1011.0 |
| 20260831025919 | 26 | 179 | 4.8 | 4.8 | 0.00 | 0.00 | 0.00 | 84 | 1010.9 |
| 20260831025418 | 26 | 188 | 3.2 | 4.8 | 0.00 | 0.00 | 0.00 | 84 | 1010.9 |
| 20260831024914 | 26 | 162 | 6.4 | 8.0 | 0.00 | 0.00 | 0.00 | 84 | 1011.1 |
| 20260831024413 | 26 | 178 | 4.8 | 8.0 | 0.00 | 0.00 | 0.00 | 84 | 1010.9 |
| 20260831023913 | 26 | 164 | 6.4 | 8.0 | 0.00 | 0.00 | 0.00 | 84 | 1010.9 |
| 20260831023411 | 26 | 180 | 4.8 | 8.0 | 0.00 | 0.00 | 0.00 | 84 | 1011.0 |
| 20260831022907 | 27 | 168 | 4.8 | 8.0 | 0.00 | 0.00 | 0.00 | 83 | 1011.0 |
| 20260831022405 | 27 | 185 | 4.8 | 8.0 | 0.00 | 0.00 | 0.00 | 82 | 1010.9 |
| 20260831021900 | 27 | 172 | 4.8 | 4.8 | 0.00 | 0.00 | 0.00 | 82 | 1011.0 |
| 20260831021400 | 27 | 167 | 4.8 | 9.7 | 0.00 | 0.00 | 0.00 | 82 | 1011.1 |
| 20260831020856 | 27 | 155 | 6.4 | 8.0 | 0.00 | 0.00 | 0.00 | 82 | 1010.9 |
| 20260831020355 | 27 | 158 | 3.2 | 8.0 | 0.00 | 0.00 | 0.00 | 83 | 1011.0 |
| 20260831015851 | 27 | 186 | 4.8 | 9.7 | 0.00 | 0.00 | 0.00 | 83 | 1011.0 |
| 20260831015346 | 27 | 171 | 4.8 | 4.8 | 0.00 | 0.00 | 0.00 | 82 | 1011.1 |
| 20260831014846 | 27 | 183 | 3.2 | 4.8 | 0.00 | 0.00 | 0.00 | 82 | 1010.9 |
| 20260831014341 | 27 | 167 | 4.8 | 4.8 | 0.00 | 0.00 | 0.00 | 82 | 1010.9 |
| 20260831013837 | 27 | 190 | 3.2 | 8.0 | 0.00 | 0.00 | 0.00 | 82 | 1010.9 |
| 20260831013332 | 27 | 203 | 1.6 | 4.8 | 0.00 | 0.00 | 0.00 | 81 | 1010.8 |
| 20260831012826 | 27 | 188 | 4.8 | 4.8 | 0.00 | 0.00 | 0.00 | 81 | 1010.8 |
| 20260831012322 | 28 | 191 | 4.8 | 4.8 | 0.00 | 0.00 | 0.00 | 81 | 1010.7 |
| 20260831011821 | 28 | 186 | 4.8 | 4.8 | 0.00 | 0.00 | 0.00 | 81 | 1010.7 |
| 20260831011316 | 28 | 189 | 4.8 | 8.0 | 0.00 | 0.00 | 0.00 | 81 | 1010.8 |
| 20260831010812 | 28 | 211 | 3.2 | 4.8 | 0.00 | 0.00 | 0.00 | 81 | 1010.6 |
| 20260831010307 | 28 | 206 | 3.2 | 4.8 | 0.00 | 0.00 | 0.00 | 81 | 1010.6 |
| 20260831005803 | 28 | 225 | 3.2 | 3.2 | 0.00 | 0.00 | 0.00 | 81 | 1010.6 |
| 20260831005258 | 28 | 219 | 3.2 | 3.2 | 0.00 | 0.00 | 0.00 | 81 | 1010.6 |
| 20260831004752 | 28 | 250 | 3.2 | 3.2 | 0.00 | 0.00 | 0.00 | 81 | 1010.7 |
| 20260831004248 | 28 | 267 | 1.6 | 1.6 | 0.00 | 0.00 | 0.00 | 82 | 1010.5 |
| 20260831003744 | 28 | 259 | 1.6 | 3.2 | 0.00 | 0.00 | 0.00 | 81 | 1010.6 |
| 20260831003240 | 29 | 274 | 0.0 | 0.0 | 0.00 | 0.00 | 0.00 | 81 | 1010.5 |
| 20260831002739 | 29 | 238 | 3.2 | 4.8 | 0.00 | 0.00 | 0.00 | 80 | 1010.4 |
| 20260831002238 | 29 | 249 | 1.6 | 3.2 | 0.00 | 0.00 | 0.00 | 80 | 1010.4 |
| 20260831001735 | 29 | 195 | 3.2 | 3.2 | 0.00 | 0.00 | 0.00 | 79 | 1010.5 |
| 20260831001229 | 30 | 186 | 3.2 | 3.2 | 0.00 | 0.00 | 0.00 | 79 | 1010.4 |
| 20260831000726 | 30 | 233 | 1.6 | 3.2 | 0.00 | 0.00 | 0.00 | 79 | 1010.4 |
| 20260831000221 | 30 | 254 | 3.2 | 3.2 | 0.00 | 0.00 | 0.00 | 78 | 1010.2 |
| 20260830235720 | 30 | 184 | 4.8 | 8.0 | 0.00 | 0.00 | 0.00 | 78 | 1010.0 |
| 20260830235215 | 30 | 189 | 3.2 | 4.8 | 0.00 | 0.00 | 0.00 | 77 | 1010.2 |
| 20260830234710 | 30 | 253 | 3.2 | 8.0 | 0.00 | 0.00 | 0.00 | 76 | 1010.3 |
| 20260830234206 | 30 | 181 | 4.8 | 8.0 | 0.00 | 0.00 | 0.00 | 77 | 1009.9 |
| 20260830233701 | 30 | 161 | 9.7 | 11.3 | 0.00 | 0.00 | 0.00 | 77 | 1009.8 |
| 20260830233157 | 31 | 246 | 1.6 | 8.0 | 0.00 | 0.00 | 0.00 | 78 | 1009.9 |
| 20260830232652 | 31 | 192 | 4.8 | 8.0 | 0.00 | 0.00 | 0.00 | 77 | 1010.0 |
| 20260830232148 | 31 | 219 | 4.8 | 11.3 | 0.00 | 0.00 | 0.00 | 76 | 1009.8 |
| 20260830231645 | 31 | 182 | 9.7 | 11.3 | 0.00 | 0.00 | 0.00 | 76 | 1009.8 |
| 20260830231144 | 31 | 169 | 6.4 | 9.7 | 0.00 | 0.00 | 0.00 | 76 | 1009.9 |
| 20260830230639 | 31 | 216 | 8.0 | 9.7 | 0.00 | 0.00 | 0.00 | 76 | 1009.8 |
| 20260830230139 | 31 | 195 | 6.4 | 9.7 | 0.00 | 0.00 | 0.00 | 77 | 1009.8 |
| 20260830225634 | 31 | 182 | 8.0 | 11.3 | 0.00 | 0.00 | 0.00 | 78 | 1009.9 |
| 20260830225128 | 31 | 182 | 6.4 | 8.0 | 0.00 | 0.00 | 0.00 | 79 | 1009.9 |
| 20260830224627 | 31 | 202 | 8.0 | 9.7 | 0.00 | 0.00 | 0.00 | 78 | 1010.0 |
| 20260830224123 | 31 | 171 | 4.8 | 4.8 | 0.00 | 0.00 | 0.00 | 77 | 1009.9 |
| 20260830223620 | 31 | 215 | 4.8 | 8.0 | 0.00 | 0.00 | 0.00 | 78 | 1009.9 |
| 20260830223114 | 30 | 172 | 3.2 | 8.0 | 0.00 | 0.00 | 0.00 | 81 | 1010.0 |
| 20260830222609 | 30 | 159 | 4.8 | 11.3 | 0.00 | 0.00 | 0.00 | 81 | 1010.0 |
| 20260830222105 | 30 | 228 | 6.4 | 9.7 | 0.00 | 0.00 | 0.00 | 81 | 1009.9 |
| 20260830221600 | 30 | 199 | 6.4 | 8.0 | 0.00 | 0.00 | 0.00 | 81 | 1009.8 |
| 20260830221056 | 29 | 152 | 6.4 | 9.7 | 0.00 | 0.00 | 0.00 | 82 | 1009.7 |
| 20260830220551 | 29 | 179 | 4.8 | 8.0 | 0.00 | 0.00 | 0.00 | 83 | 1009.7 |
| 20260830220049 | 29 | 203 | 4.8 | 12.9 | 0.00 | 0.00 | 0.00 | 82 | 1009.8 |
| 20260830215544 | 29 | 170 | 4.8 | 12.9 | 0.00 | 0.00 | 0.00 | 82 | 1009.7 |
| 20260830215038 | 29 | 182 | 4.8 | 11.3 | 0.00 | 0.00 | 0.00 | 81 | 1009.9 |
| 20260830214533 | 29 | 187 | 4.8 | 17.7 | 0.00 | 0.00 | 0.00 | 80 | 1009.6 |
| 20260830214028 | 29 | 168 | 4.8 | 14.5 | 0.00 | 0.00 | 0.00 | 80 | 1010.3 |
| 20260830213527 | 29 | 186 | 4.8 | 11.3 | 0.00 | 0.00 | 0.00 | 79 | 1010.0 |
| 20260830213023 | 29 | 111 | 8.0 | 12.9 | 0.00 | 0.00 | 0.00 | 80 | 1010.0 |
| 20260830212518 | 28 | 182 | 1.6 | 8.0 | 0.00 | 0.00 | 0.00 | 80 | 1010.3 |
| 20260830212013 | 28 | 186 | 6.4 | 12.9 | 0.00 | 0.00 | 0.00 | 79 | 1010.4 |
| 20260830211508 | 29 | 158 | 6.4 | 11.3 | 0.00 | 0.00 | 0.00 | 79 | 1010.5 |
| 20260830211003 | 28 | 169 | 8.0 | 14.5 | 0.00 | 0.00 | 0.00 | 78 | 1010.4 |
| 20260830210503 | 28 | 214 | 8.0 | 12.9 | 0.00 | 0.00 | 0.00 | 78 | 1010.2 |
| 20260830210002 | 28 | 174 | 8.0 | 12.9 | 0.00 | 0.00 | 0.00 | 77 | 1010.5 |
| 20260830205500 | 29 | 112 | 8.0 | 11.3 | 0.00 | 0.00 | 0.00 | 77 | 1010.5 |
| 20260830204955 | 29 | 174 | 8.0 | 11.3 | 0.00 | 0.00 | 0.00 | 77 | 1010.8 |
| 20260830204454 | 29 | 210 | 4.8 | 9.7 | 0.00 | 0.00 | 0.00 | 77 | 1010.7 |
| 20260830203949 | 29 | 202 | 6.4 | 14.5 | 0.00 | 0.00 | 0.00 | 76 | 1010.6 |
| 20260830203446 | 29 | 184 | 8.0 | 12.9 | 0.00 | 0.00 | 0.00 | 76 | 1010.6 |
| 20260830202944 | 29 | 140 | 4.8 | 8.0 | 0.00 | 0.00 | 0.00 | 77 | 1010.7 |
| 20260830202440 | 29 | 194 | 3.2 | 4.8 | 0.00 | 0.00 | 0.00 | 76 | 1010.8 |
| 20260830201936 | 28 | 165 | 4.8 | 12.9 | 0.00 | 0.00 | 0.00 | 75 | 1010.9 |
| 20260830201429 | 28 | 241 | 6.4 | 12.9 | 0.00 | 0.00 | 0.00 | 75 | 1010.8 |
| 20260830200925 | 29 | 239 | 1.6 | 8.0 | 0.00 | 0.00 | 0.00 | 75 | 1010.9 |
| 20260830200420 | 29 | 195 | 6.4 | 9.7 | 0.00 | 0.00 | 0.00 | 74 | 1010.9 |
| 20260830195914 | 28 | 143 | 6.4 | 11.3 | 0.00 | 0.00 | 0.00 | 75 | 1011.2 |
| 20260830195415 | 28 | 217 | 8.0 | 12.9 | 0.00 | 0.00 | 0.00 | 74 | 1011.0 |
| 20260830194913 | 29 | 190 | 8.0 | 12.9 | 0.00 | 0.00 | 0.00 | 73 | 1011.3 |
| 20260830194412 | 29 | 223 | 6.4 | 8.0 | 0.00 | 0.00 | 0.00 | 75 | 1011.2 |
| 20260830193912 | 28 | 190 | 6.4 | 11.3 | 0.00 | 0.00 | 0.00 | 75 | 1011.4 |
| 20260830193411 | 28 | 186 | 3.2 | 9.7 | 0.00 | 0.00 | 0.00 | 76 | 1011.4 |
| 20260830192907 | 28 | 176 | 8.0 | 12.9 | 0.00 | 0.00 | 0.00 | 75 | 1011.2 |
| 20260830192403 | 28 | 176 | 4.8 | 8.0 | 0.00 | 0.00 | 0.00 | 78 | 1011.2 |
| 20260830191858 | 27 | 195 | 6.4 | 11.3 | 0.00 | 0.00 | 0.00 | 78 | 1011.5 |
| 20260830191357 | 27 | 156 | 6.4 | 11.3 | 0.00 | 0.00 | 0.00 | 76 | 1011.6 |
| 20260830190853 | 28 | 190 | 8.0 | 11.3 | 0.00 | 0.00 | 0.00 | 76 | 1011.7 |
| 20260830190348 | 28 | 229 | 8.0 | 11.3 | 0.00 | 0.00 | 0.00 | 74 | 1011.6 |
| 20260830185846 | 27 | 204 | 8.0 | 12.9 | 0.00 | 0.00 | 0.00 | 76 | 1011.6 |
| 20260830185342 | 27 | 187 | 4.8 | 9.7 | 0.00 | 0.00 | 0.00 | 78 | 1011.6 |
| 20260830184837 | 27 | 212 | 8.0 | 9.7 | 0.00 | 0.00 | 0.00 | 77 | 1011.6 |
| 20260830184336 | 27 | 176 | 4.8 | 8.0 | 0.00 | 0.00 | 0.00 | 76 | 1011.6 |
| 20260830183831 | 27 | 254 | 8.0 | 11.3 | 0.00 | 0.00 | 0.00 | 77 | 1011.5 |
| 20260830183330 | 27 | 235 | 4.8 | 8.0 | 0.00 | 0.00 | 0.00 | 78 | 1011.7 |
| 20260830182826 | 27 | 204 | 4.8 | 9.7 | 0.00 | 0.00 | 0.00 | 78 | 1011.7 |
| 20260830182322 | 26 | 233 | 4.8 | 9.7 | 0.00 | 0.00 | 0.00 | 78 | 1011.7 |
| 20260830181818 | 26 | 241 | 4.8 | 8.0 | 0.00 | 0.00 | 0.00 | 77 | 1011.7 |
| 20260830181313 | 26 | 247 | 3.2 | 9.7 | 0.00 | 0.00 | 0.00 | 78 | 1012.1 |
| 20260830180807 | 26 | 193 | 6.4 | 11.3 | 0.00 | 0.00 | 0.00 | 77 | 1011.9 |
| 20260830180302 | 26 | 254 | 3.2 | 11.3 | 0.00 | 0.00 | 0.00 | 78 | 1011.9 |
| 20260830175800 | 26 | 154 | 9.7 | 14.5 | 0.00 | 0.00 | 0.00 | 76 | 1011.9 |
| 20260830175256 | 26 | 183 | 6.4 | 9.7 | 0.00 | 0.00 | 0.00 | 77 | 1012.0 |
| 20260830174756 | 26 | 225 | 4.8 | 8.0 | 0.00 | 0.00 | 0.00 | 77 | 1012.2 |
| 20260830174252 | 26 | 223 | 11.3 | 12.9 | 0.00 | 0.00 | 0.00 | 76 | 1012.1 |
| 20260830173751 | 26 | 206 | 6.4 | 9.7 | 0.00 | 0.00 | 0.00 | 78 | 1012.0 |
| 20260830173246 | 26 | 228 | 4.8 | 9.7 | 0.00 | 0.00 | 0.00 | 80 | 1012.3 |
| 20260830172743 | 26 | 218 | 6.4 | 12.9 | 0.00 | 0.00 | 0.00 | 79 | 1012.1 |
| 20260830172240 | 26 | 208 | 4.8 | 8.0 | 0.00 | 0.00 | 0.00 | 79 | 1012.1 |
| 20260830171735 | 27 | 171 | 3.2 | 4.8 | 0.00 | 0.00 | 0.00 | 78 | 1012.2 |
| 20260830171230 | 26 | 211 | 6.4 | 12.9 | 0.00 | 0.00 | 0.00 | 79 | 1012.2 |
| 20260830170725 | 26 | 243 | 1.6 | 4.8 | 0.00 | 0.00 | 0.00 | 79 | 1012.4 |
| 20260830170224 | 26 | 247 | 3.2 | 8.0 | 0.00 | 0.00 | 0.00 | 79 | 1012.5 |
| 20260830165723 | 26 | 160 | 4.8 | 4.8 | 0.00 | 0.00 | 0.00 | 78 | 1012.6 |
| 20260830165219 | 26 | 268 | 1.6 | 4.8 | 0.00 | 0.00 | 0.00 | 80 | 1012.4 |
| 20260830164715 | 26 | 292 | 0.0 | 4.8 | 0.00 | 0.00 | 0.00 | 82 | 1012.4 |
| 20260830164211 | 25 | 268 | 1.6 | 3.2 | 0.00 | 0.00 | 0.00 | 81 | 1012.7 |
| 20260830163707 | 25 | 262 | 1.6 | 3.2 | 0.00 | 0.00 | 0.00 | 84 | 1012.7 |
| 20260830163203 | 25 | 270 | 1.6 | 1.6 | 0.00 | 0.00 | 0.00 | 82 | 1012.9 |
| 20260830162657 | 25 | 333 | 0.0 | 0.0 | 0.00 | 0.00 | 0.00 | 85 | 1012.8 |
| 20260830162153 | 24 | 306 | 0.0 | 1.6 | 0.00 | 0.00 | 0.00 | 85 | 1012.8 |
| 20260830161648 | 24 | 305 | 1.6 | 1.6 | 0.00 | 0.00 | 0.00 | 89 | 1012.9 |
| 20260830161142 | 23 | 305 | 0.0 | 0.0 | 0.00 | 0.00 | 0.00 | 88 | 1012.8 |
| 20260830160639 | 23 | 304 | 1.6 | 1.6 | 0.00 | 0.00 | 0.00 | 88 | 1012.8 |
| 20260830160139 | 23 | 291 | 0.0 | 3.2 | 0.00 | 0.00 | 0.00 | 88 | 1012.6 |
| 20260830155636 | 23 | 265 | 3.2 | 3.2 | 0.00 | 0.00 | 0.00 | 86 | 1012.7 |
| 20260830155131 | 24 | 226 | 6.4 | 9.7 | 0.00 | 0.00 | 0.00 | 85 | 1012.5 |
| 20260830154626 | 24 | 172 | 8.0 | 9.7 | 0.00 | 0.00 | 0.00 | 84 | 1012.4 |
| 20260830154122 | 24 | 198 | 6.4 | 9.7 | 0.00 | 0.00 | 0.00 | 85 | 1012.3 |
| 20260830153618 | 24 | 197 | 8.0 | 12.9 | 0.00 | 0.00 | 0.00 | 84 | 1012.2 |
| 20260830153118 | 24 | 209 | 6.4 | 8.0 | 0.00 | 0.00 | 0.00 | 86 | 1012.4 |
| 20260830152617 | 24 | 199 | 8.0 | 9.7 | 0.00 | 0.00 | 0.00 | 85 | 1012.1 |
| 20260830152116 | 23 | 223 | 6.4 | 8.0 | 0.00 | 0.00 | 0.00 | 84 | 1012.0 |
| 20260830151611 | 23 | 220 | 6.4 | 8.0 | 0.00 | 0.00 | 0.00 | 85 | 1012.1 |
| 20260830151106 | 23 | 225 | 8.0 | 11.3 | 0.00 | 0.00 | 0.00 | 85 | 1011.8 |
| 20260830150601 | 23 | 210 | 8.0 | 14.5 | 0.00 | 0.00 | 0.00 | 85 | 1011.9 |
| 20260830150055 | 23 | 229 | 9.7 | 12.9 | 0.00 | 0.00 | 0.00 | 84 | 1012.0 |
| 20260830145555 | 23 | 204 | 6.4 | 9.7 | 0.00 | 0.00 | 0.00 | 85 | 1011.9 |
| 20260830145050 | 23 | 222 | 6.4 | 8.0 | 0.00 | 0.00 | 0.00 | 85 | 1011.9 |
| 20260830144546 | 23 | 192 | 6.4 | 9.7 | 0.00 | 0.00 | 0.00 | 85 | 1012.1 |
| 20260830144042 | 23 | 215 | 6.4 | 11.3 | 0.00 | 0.00 | 0.00 | 84 | 1011.8 |
| 20260830143538 | 23 | 202 | 9.7 | 12.9 | 0.00 | 0.00 | 0.00 | 83 | 1011.7 |
| 20260830143035 | 23 | 240 | 8.0 | 11.3 | 0.00 | 0.00 | 0.00 | 82 | 1011.7 |
| 20260830142531 | 23 | 210 | 11.3 | 14.5 | 0.00 | 0.00 | 0.00 | 81 | 1011.9 |
| 20260830142026 | 23 | 217 | 8.0 | 14.5 | 0.00 | 0.00 | 0.00 | 81 | 1011.8 |
| 20260830141521 | 24 | 216 | 8.0 | 12.9 | 0.00 | 0.00 | 0.00 | 81 | 1011.7 |
| 20260830141016 | 24 | 246 | 3.2 | 14.5 | 0.00 | 0.00 | 0.00 | 81 | 1011.8 |
| 20260830140516 | 24 | 231 | 11.3 | 17.7 | 0.00 | 0.00 | 0.00 | 79 | 1011.7 |
| 20260830140012 | 24 | 229 | 8.0 | 14.5 | 0.00 | 0.00 | 0.00 | 80 | 1011.6 |
| 20260830135506 | 24 | 241 | 9.7 | 16.1 | 0.00 | 0.00 | 0.00 | 80 | 1011.9 |
| 20260830135001 | 23 | 208 | 11.3 | 16.1 | 0.00 | 0.00 | 0.00 | 79 | 1011.6 |
| 20260830134456 | 23 | 203 | 8.0 | 12.9 | 0.00 | 0.00 | 0.00 | 79 | 1011.5 |
| 20260830133946 | 24 | 269 | 8.0 | 12.9 | 0.00 | 0.00 | 0.00 | 79 | 1011.5 |
| 20260830133442 | 24 | 141 | 11.3 | 16.1 | 0.00 | 0.00 | 0.00 | 79 | 1011.2 |
| 20260830132937 | 24 | 189 | 6.4 | 14.5 | 0.00 | 0.00 | 0.00 | 79 | 1011.2 |
| 20260830132433 | 25 | 220 | 9.7 | 17.7 | 0.00 | 0.00 | 0.00 | 77 | 1011.1 |
| 20260830131931 | 25 | 209 | 11.3 | 14.5 | 0.00 | 0.00 | 0.00 | 74 | 1011.1 |
| 20260830131426 | 25 | 199 | 14.5 | 17.7 | 0.00 | 0.00 | 0.00 | 71 | 1011.3 |
| 20260830130920 | 25 | 216 | 9.7 | 16.1 | 0.00 | 0.00 | 0.00 | 71 | 1011.2 |
| 20260830130416 | 25 | 222 | 14.5 | 22.5 | 0.00 | 0.00 | 0.00 | 70 | 1011.4 |
| 20260830125915 | 26 | 205 | 9.7 | 16.1 | 0.00 | 0.00 | 0.00 | 71 | 1011.4 |
| 20260830125411 | 26 | 208 | 12.9 | 20.9 | 0.00 | 0.00 | 0.00 | 71 | 1011.2 |
| 20260830124908 | 25 | 239 | 12.9 | 20.9 | 0.00 | 0.00 | 0.00 | 70 | 1011.3 |
| 20260830124403 | 25 | 207 | 12.9 | 25.7 | 0.00 | 0.00 | 0.00 | 72 | 1011.1 |
| 20260830123900 | 25 | 216 | 12.9 | 24.1 | 0.00 | 0.00 | 0.00 | 71 | 1011.4 |
| 20260830123356 | 25 | 287 | 14.5 | 22.5 | 0.00 | 0.00 | 0.00 | 71 | 1011.4 |
| 20260830122854 | 25 | 260 | 12.9 | 20.9 | 0.00 | 0.00 | 0.00 | 71 | 1011.4 |
| 20260830122348 | 25 | 216 | 16.1 | 20.9 | 0.00 | 0.00 | 0.00 | 71 | 1011.3 |
| 20260830121844 | 25 | 214 | 8.0 | 16.1 | 0.00 | 0.00 | 0.00 | 71 | 1011.4 |
| 20260830121344 | 25 | 192 | 12.9 | 16.1 | 0.00 | 0.00 | 0.00 | 71 | 1011.4 |
| 20260830120839 | 25 | 219 | 14.5 | 17.7 | 0.00 | 0.00 | 0.00 | 71 | 1011.3 |
| 20260830120334 | 25 | 226 | 12.9 | 17.7 | 0.00 | 0.00 | 0.00 | 70 | 1011.3 |
| 20260830115831 | 25 | 201 | 9.7 | 14.5 | 0.00 | 0.00 | 0.00 | 71 | 1011.3 |